Home > Weather > Maceió > Past weeks

Flag for Brazil Past Weather in Maceió, Alagoas, Brazil — Yesterday and Last 2 Weeks

Now
77 °F

Broken clouds.


Feels Like: 79 °F
Forecast: 74 / 78 °F
Wind: 14 mph from Southeast

Location: Maceio Aeroporto

Current Time: Aug 28, 2016 at 11:07:52 AM

Latest Report: Aug 28, 2016 at 10:00 AM


Visibility: N/A

Pressure: 30.09 "Hg

Humidity: 69%

Dew Point: 66 °F

Location of MaceióLocation

Past Weather in Maceió — Graph

°F

Maceió Temperature Yesterday

Maximum temperature yesterday: 79 °F (at 11:00 AM)
Minimum temperature yesterday: 70 °F (at 12:00 AM)
Average temperature yesterday: 73 °F

High & Low Weather Summary for the Past Weeks

 TemperatureHumidityPressure
High84 °F (Aug 16, 11:00 AM)100% (Aug 23, 10:00 PM)30.12 "Hg (Aug 23, 10:00 PM)
Low64 °F (Aug 26, 2:00 AM)45% (Aug 25, 12:00 PM)29.95 "Hg (Aug 15, 2:00 PM)
Average74 °F80%30.03 "Hg
* Reported Aug 13 10:00 AM — Aug 28 10:00 AM, Maceió, Weather by CustomWeather, © 2016

Note: Actual official high and low records may vary slightly from our data, if they occured in-between our weather recording intervals... More about our weather records

Advertising

Maceió Weather History for the Previous 24 Hours

Scroll right to see more
 ConditionsComfort  
Time TempWeatherWind HumidityBarometerVisibility
10:00 AM
Sun, Aug 28
77 °FBroken clouds.14 mph69%30.09 "HgN/A
9:00 AM77 °FScattered clouds.13 mph79%30.09 "HgN/A
8:00 AM77 °FScattered clouds.12 mph74%30.07 "HgN/A
7:00 AM72 °FScattered clouds.2 mph94%30.04 "Hg5 mi
6:00 AM70 °FLight rain. Partly sunny.3 mph100%30.04 "Hg5 mi
5:00 AM68 °FPassing clouds.3 mph100%30.01 "HgN/A
4:00 AM68 °FPassing clouds.3 mph100%30.01 "HgN/A
3:00 AM70 °FPassing clouds.3 mph94%30.01 "Hg5 mi
2:00 AM70 °FLight rain. Fog.3 mph94%30.01 "Hg3 mi
1:00 AM70 °FLight rain. Fog.10 mph94%30.04 "Hg3 mi
12:00 AM73 °FPassing clouds.7 mph83%30.04 "HgN/A
11:00 PM
Sat, Aug 27
72 °FPassing clouds.5 mph83%30.07 "HgN/A
10:00 PM73 °FClear.6 mph78%30.07 "Hg10 mi
9:00 PM73 °FPassing clouds.7 mph83%30.07 "HgN/A
8:00 PM75 °FPassing clouds.8 mph74%30.07 "HgN/A
7:00 PM75 °FPassing clouds.13 mph74%30.04 "HgN/A
6:00 PM75 °FPassing clouds.16 mph74%30.04 "HgN/A
5:00 PM77 °FScattered clouds.20 mph65%30.01 "HgN/A
4:00 PM77 °FScattered clouds.26 mph69%30.01 "HgN/A
3:00 PM77 °FScattered clouds.13 mph74%30.01 "HgN/A
2:00 PM73 °FBroken clouds.20 mph89%30.01 "HgN/A
1:00 PM73 °FBroken clouds.12 mph89%30.01 "Hg4 mi
12:00 PM73 °FLight rain. Broken clouds.17 mph89%30.04 "Hg4 mi
11:00 AM79 °FBroken clouds.17 mph79%30.04 "HgN/A
Weather by CustomWeather, © 2016

See weather overviewHow to use our weather pages